Погода в Кневичах

Россия / Приморский край     43°23′41″N   132°11′27″E
темп.,
°C
ветер,
м/с
пор.,
м/с
влажн.,
%
обл.,
%
осадки,
мм/ч
давл.,
гПа
погр.,
м
24 января, вс
вс2401:00−11юв22770 0.0 102924
04:00−11юв22750 0.0 102824
07:00−11юв22780 0.0 102723
10:00−10всв11710 0.0 102921
13:00−2ююв127553 0.0 1026331
16:00−1ссз117326 0.0 1025298
19:00−6ссз22900 0.0 102727
22:00−8ссз23950 0.0 102856
25 января, пн
пн2501:00−9ссз23930 0.0 103065
04:00−11ссз33920 0.0 103079
07:00−12ссз34900 0.0 1032106
10:00−11ссз34850 0.0 1032153
13:00−6ссз34730 0.0 1031271
16:00−2ююв22660 0.0 1027172
19:00−6ююв227633 0.0 102721
22:00−10сз119034 0.0 102927
26 января, вт
вт2601:00−8вюв1187100 0.0 102721
04:00−6юв1288100 0.0 102530
07:00−6юв1294100 0.1 102238
10:00−4юв21194100 0.2 1020410
13:000ююв41296100 0.3 1018582
16:000ю1599100 3.3 1015263
19:00−1с0199100 2.9 101621
22:00−4сз41257100 3.0 1017406
27 января, ср
ср2701:00−9сз26770 0.0 1018182
04:00−11сз238642 0.0 102153
07:00−13сз128414 0.0 102122
10:00−11зсз27667 0.0 1023575
13:00−9зсз48530 0.0 10231573
16:00−8зсз49533 0.0 10221729
19:00−11зсз28670 0.0 1024220
22:00−13сз27680 0.0 1024238
28 января, чт
чт2801:00−14ссз12760 0.0 102520
04:00−15с228028 0.0 102541
07:00−15ссв228198 0.0 102364
10:00−14св227366 0.0 1023120
13:00−9ссв135067 0.0 1019575
16:00−9сз235499 0.0 1013765
19:00−11ссз3787100 0.1 1013430
22:00−12с4987100 0.3 1013432